Flag for South Africa Weather past 2 weeks in Rustenburg, South Africa

Now
72 °F

Clear.


Feels Like: 74 °F
Forecast: 55 / 91 °F
Wind: 6 mph from Southeast

Location: Lanseria Civ / Mil

Current Time: Sep 17, 2014 at 9:55:18 PM

Latest Report: Sep 17, 2014 at 9:00 PM


Visibility: 10 mi

Pressure: 30.09 "Hg

Humidity: 19%

Dew point: 27 °F

Location of RustenburgLocation

Historic Weather in Rustenburg — Graph

°F

Rustenburg temperature yesterday

Maximum temperature yesterday: 86 °F (at 2:00 PM)
Minimum temperature yesterday: 54 °F (at 4:00 AM)
Average temperature yesterday: 71 °F

Past Weeks' High & Low Weather Summary

 TemperatureHumidityPressure
High88 °F (Sep 12, 2:00 PM)72% (Sep 14, 5:00 AM)30.51 "Hg (Sep 14, 5:00 AM)
Low43 °F (Sep 4, 5:00 AM)6% (Sep 8, 3:00 PM)30.07 "Hg (Sep 17, 3:00 PM)
Average68 °F29%30.31 "Hg
* Reported Sep 2 8:00 PM — Sep 17 8:00 PM, Rustenburg, Weather by CustomWeather, © 2014

Note: Actual official high and low records may vary slightly from our data, if they occured in-between our weather recording intervals... More about our weather records

Advertising

Rustenburg weather history for previous 24 hours

 ConditionsComfort  
Time TempWeatherWind HumidityBarometerVisibility
8:00 PM
Sep 17
72 °FClear.5 mph16%30.09 "Hg10 mi
7:00 PM77 °FClear.7 mph12%30.09 "Hg10 mi
6:00 PM79 °FClear.7 mph12%30.07 "Hg10 mi
5:00 PM84 °FSunny.9 mph10%30.07 "Hg10 mi
4:00 PM86 °FSunny.10 mph11%30.07 "Hg10 mi
3:00 PM88 °FPassing clouds.14 mph10%30.07 "HgN/A
2:00 PM88 °FPassing clouds.13 mph10%30.09 "HgN/A
1:00 PM86 °FPassing clouds.9 mph13%30.12 "HgN/A
12:47 PM86 °FPassing clouds.8 mph13%30.12 "HgN/A
12:00 PM82 °FPassing clouds.8 mph14%30.15 "HgN/A
11:00 AM82 °FPassing clouds.10 mph15%30.18 "HgN/A
10:00 AM77 °FPassing clouds.7 mph17%30.21 "HgN/A
9:00 AM72 °FSunny.No wind22%30.24 "Hg10 mi
8:00 AM64 °FSunny.No wind34%30.21 "Hg10 mi
7:00 AM55 °FSunny.No wind47%30.21 "Hg10 mi
6:00 AM57 °FSunny.2 mph41%30.21 "Hg10 mi
5:00 AM57 °FRefreshingly cool.2 mph41%30.18 "HgN/A
4:00 AM59 °FRefreshingly cool.6 mph39%30.18 "HgN/A
3:00 AM63 °FMild.6 mph32%30.18 "HgN/A
2:00 AM64 °FMild.5 mph30%30.21 "HgN/A
1:00 AM66 °FMild.3 mph28%30.21 "HgN/A
12:00 AM68 °FMild.5 mph26%30.24 "HgN/A
11:00 PM
Sep 16
68 °FMild.3 mph26%30.24 "HgN/A
10:00 PM66 °FClear.No wind28%30.24 "Hg10 mi
9:00 PM70 °FClear.3 mph23%30.24 "Hg10 mi
Weather by CustomWeather, © 2014

See weather overviewHow to use our weather pages